TimeEDT,TemperatureF,Dew PointF,Humidity,Sea Level PressureIn,VisibilityMPH,Wind Direction,Wind SpeedMPH,Gust SpeedMPH,PrecipitationIn,Events,Conditions,WindDirDegrees,DateUTC
12:54 AM,55.0,39.9,57,30.04,10.0,South,8.1,-,N/A,,Clear,180,2013-05-07 04:54:00
1:54 AM,52.0,39.0,61,30.03,10.0,South,8.1,-,N/A,,Clear,180,2013-05-07 05:54:00
2:54 AM,50.0,39.0,66,30.03,10.0,South,9.2,-,N/A,,Clear,180,2013-05-07 06:54:00
3:54 AM,48.9,39.0,69,30.03,10.0,South,6.9,-,N/A,,Scattered Clouds,190,2013-05-07 07:54:00
4:54 AM,48.0,39.0,71,30.03,10.0,South,9.2,-,N/A,,Mostly Cloudy,180,2013-05-07 08:54:00
5:54 AM,46.9,39.9,77,30.04,10.0,South,5.8,-,N/A,,Mostly Cloudy,190,2013-05-07 09:54:00
6:54 AM,50.0,41.0,71,30.04,10.0,South,8.1,-,N/A,,Clear,190,2013-05-07 10:54:00
7:54 AM,55.0,42.1,62,30.05,10.0,South,5.8,-,N/A,,Mostly Cloudy,180,2013-05-07 11:54:00
8:54 AM,62.1,41.0,46,30.04,10.0,SSW,5.8,-,N/A,,Mostly Cloudy,200,2013-05-07 12:54:00
9:54 AM,70.0,39.0,32,30.02,10.0,South,8.1,-,N/A,,Mostly Cloudy,190,2013-05-07 13:54:00
10:54 AM,77.0,37.0,24,30.00,10.0,South,10.4,-,N/A,,Clear,180,2013-05-07 14:54:00
11:54 AM,81.0,33.1,18,29.98,10.0,WSW,16.1,27.6,N/A,,Mostly Cloudy,250,2013-05-07 15:54:00
12:54 PM,82.0,32.0,16,29.97,10.0,WSW,13.8,18.4,N/A,,Mostly Cloudy,250,2013-05-07 16:54:00
1:54 PM,82.9,30.9,15,29.96,10.0,WSW,10.4,17.3,N/A,,Mostly Cloudy,250,2013-05-07 17:54:00
2:54 PM,82.0,30.9,16,29.94,10.0,SW,11.5,-,N/A,,Partly Cloudy,230,2013-05-07 18:54:00
3:54 PM,82.9,30.9,15,29.94,10.0,Variable,6.9,18.4,N/A,,Scattered Clouds,0,2013-05-07 19:54:00
4:54 PM,82.0,28.0,14,29.95,10.0,West,11.5,20.7,N/A,,Scattered Clouds,270,2013-05-07 20:54:00
5:54 PM,81.0,28.0,14,29.96,10.0,WNW,10.4,18.4,N/A,,Clear,290,2013-05-07 21:54:00
6:54 PM,78.1,30.9,18,29.99,10.0,WNW,3.5,-,N/A,,Partly Cloudy,290,2013-05-07 22:54:00
7:54 PM,72.0,36.0,27,30.02,10.0,NNW,8.1,-,N/A,,Clear,340,2013-05-07 23:54:00
8:54 PM,69.1,37.9,32,30.06,10.0,North,8.1,-,N/A,,Clear,350,2013-05-08 00:54:00
9:54 PM,66.0,39.0,37,30.08,10.0,Calm,Calm,-,N/A,,Clear,0,2013-05-08 01:54:00
10:54 PM,64.0,37.9,38,30.09,10.0,North,3.5,-,N/A,,Clear,360,2013-05-08 02:54:00
11:54 PM,57.0,39.0,51,30.12,10.0,SSE,5.8,-,N/A,,Clear,160,2013-05-08 03:54:00